This demonstration page uses our WeatherBlox Daily Observations layout. Learn more.

Left ArrowRight Arrow

41.55636, -103.73856

Hourly Observations for December 6, 2017

Temp ( °F °C ) Dew Point ( °F °C ) Humidity (%) Winds ( mph kmh ) Pressure ( in mb ) Visibility ( mi km ) Precip ( " mm )
12:53 am 00:53 Mostly Clear 32 undefined 14 -10 47 47 WNW 15 24 30.33 1027 10 16 N/A
1:53 am 01:53 Mostly Cloudy 32 undefined 12 -11.1 43 43 WNW 18 30 30.36 1028 10 16 N/A
2:53 am 02:53 Clear 29 -1.7 15 -9.4 56 56 NW 20 31 30.37 1029 10 16 N/A
3:53 am 03:53 Mostly Cloudy 27 -2.8 13 -10.6 55 55 WNW 16 26 30.39 1029 10 16 N/A
4:53 am 04:53 Cloudy 28 -2.2 14 -10 56 56 WNW 17 28 30.40 1030 10 16 N/A
5:53 am 05:53 Cloudy 29 -1.7 15 -9.4 56 56 WNW 16 26 30.40 1030 10 16 N/A
6:53 am 06:53 Cloudy 29 -1.7 14 -10 54 54 WNW 14 22 30.42 1030 10 16 N/A
7:53 am 07:53 Cloudy 31 -0.6 14 -10 49 49 WNW 18 30 30.43 1030 10 16 N/A
8:53 am 08:53 Cloudy 32 undefined 15 -9.4 50 50 NW 26 43 30.44 1031 10 16 N/A
9:53 am 09:53 Cloudy 34 1.1 13 -10.6 42 42 NW 32 52 30.44 1031 10 16 N/A
10:53 am 10:53 Mostly Cloudy 36 2.2 10 -12.2 34 34 NW 36 57 30.43 1030 10 16 N/A
11:53 am 11:53 Mostly Cloudy 36 2.2 12 -11.1 37 37 NW 37 59 30.41 1030 10 16 N/A
12:53 pm 12:53 Cloudy 35 1.7 17 -8.3 48 48 NNW 28 44 30.42 1030 10 16 N/A
1:53 pm 13:53 Windy with Snow Likely 33 0.6 16 -8.9 49 49 NW 23 37 30.43 1031 9 14 N/A
2:53 pm 14:53 Cloudy 31 -0.6 17 -8.3 56 56 NNW 20 31 30.47 1032 10 16 N/A
3:53 pm 15:53 Cloudy 29 -1.7 17 -8.3 61 61 N 22 35 30.51 1033 10 16 N/A
4:53 pm 16:53 Mostly Cloudy 27 -2.8 13 -10.6 55 55 NNW 17 28 30.53 1034 10 16 N/A
5:53 pm 17:53 Mostly Clear 23 -5 13 -10.6 65 65 NNW 15 24 30.57 1035 10 16 N/A
6:53 pm 18:53 Cloudy 22 -5.6 12 -11.1 66 66 NNW 17 28 30.60 1036 10 16 N/A
7:53 pm 19:53 Mostly Cloudy 20 -6.7 11 -11.7 68 68 WNW 10 17 30.60 1036 10 16 N/A
8:53 pm 20:53 Cloudy 21 -6.1 11 -11.7 65 65 NW 14 22 30.59 1036 10 16 N/A
9:53 pm 21:53 Cloudy 21 -6.1 11 -11.7 65 65 NNW 14 22 30.57 1035 10 16 N/A
10:53 pm 22:53 Cloudy 22 -5.6 12 -11.1 66 66 WNW 7 11 30.55 1035 10 16 N/A
11:06 pm 23:06 Cloudy 22 -5.6 12 -11.1 66 66 WNW 6 9 30.65 1038 10 16 N/A
11:50 pm 23:50 Cloudy 23 -5 12 -11 63 63 NW 16 26 30.65 1038 10 16 N/A
11:53 pm 23:53 Cloudy 24 -4.4 13 -10.6 62 62 NW 16 26 30.53 1034 10 16 N/A

Powered by AerisWeather